Regional Weather Roundup
Issued by NWS Little Rock, AR

Home | Current Version | Previous Version | Graphics & Text | Print | Product List | Glossary On
Versions: 1 2 3 4 5 6 7 8 9 10 11 12 13 14 15 16 17 18 19 20 21 22 23 24 25 26 27 28 29 30 31 32 33 34 35 36 37 38 39 40 41 42 43 44 45 46 47 48 49 50
000
ASUS44 KLZK 260105
RWRLZK

WEATHER ROUNDUP FOR ARKANSAS
NATIONAL WEATHER SERVICE LITTLE ROCK AR
800 PM CDT FRI JUL 25 2014

NOTE: "FAIR" INDICATES FEW OR NO CLOUDS BELOW 12,000 FEET WITH NO
SIGNIFICANT WEATHER AND/OR OBSTRUCTIONS TO VISIBILITY.

ARZ001-003-010-029-260200-
NORTHWEST ARKANSAS

CITY           SKY/WX    TMP DP  RH WIND       PRES   REMARKS
FAYETTEVILLE   CLEAR     82  72  71 S9        29.96F HX  87
FORT SMITH     CLEAR     88  73  61 SE6       29.92S HX  95
HARRISON       CLEAR     80  71  74 S8        29.97S
BENTONVILLE    CLEAR     84  70  61 S8        29.96S HX  88
ROGERS         CLEAR     84  70  62 S8        29.96S HX  88
SILOAM SPGS    CLEAR     84  68  58 S9        29.96R HX  87
HIGHFILL       CLEAR     83  72  69 S9        29.95S HX  88
SPRINGDALE     CLEAR     84  72  65 S13       29.97F HX  89
$$

ARZ004-005-016-260200-
NORTH CENTRAL ARKANSAS

CITY           SKY/WX    TMP DP  RH WIND       PRES   REMARKS
BATESVILLE     CLEAR     81  72  74 S6        29.95F
FLIPPIN        CLEAR     82  72  69 S6        29.94F HX  87
MTN HOME       CLEAR     81  71  71 S7        29.93F HX  85
$$

ARZ040-041-260200-
WEST CENTRAL ARKANSAS

CITY           SKY/WX    TMP DP  RH WIND       PRES   REMARKS
MENA           CLEAR     84  73  70 CALM      30.00R HX  91
MOUNT IDA      CLEAR     80  74  81 CALM      29.96F HX  85
$$

ARZ009-017-025-026-028-260200-
NORTHEAST ARKANSAS

CITY           SKY/WX    TMP DP  RH WIND       PRES   REMARKS
JONESBORO      PTCLDY    78  68  71 SE3       29.96S
NEWPORT        CLEAR     79  72  79 S6        29.96F
WALNUT RIDGE   MOCLDY    81  52  36 S9        29.95S
BLYTHEVILLE    MOCLDY    79  66  64 S6        29.96F
$$

ARZ022-023-033-042-044-260200-
CENTRAL ARKANSAS

CITY           SKY/WX    TMP DP  RH WIND       PRES   REMARKS
LITTLE ROCK    PTCLDY    83  71  67 S5        29.96S HX  87
N LITTLE ROCK  PTCLDY    83  73  73 S6        29.96S HX  89
JACKSONVILLE   CLEAR     82  74  75 SE2       29.96S HX  88
SEARCY         CLEAR     80  72  76 SW5       29.98R
HOT SPRINGS    CLEAR     83  73  72 S3        29.97F HX  89
RUSSELLVILLE   CLEAR     82  76  81 CALM      29.95S HX  89
CLINTON        FAIR      82  75  78 SE3       29.97S HX  89
$$

ARZ036-260200-
EAST ARKANSAS

CITY           SKY/WX    TMP DP  RH WIND       PRES   REMARKS
WEST MEMPHIS   PTCLDY    78  66  66 CALM      29.95F
$$

ARZ050-053-066-070-073-260200-
SOUTHWEST ARKANSAS

CITY           SKY/WX    TMP DP  RH WIND       PRES   REMARKS
ARKADELPHIA    FAIR      86  80  82 CALM      29.96S HX 101
CAMDEN         PTCLDY    86  73  66 CALM      29.96S HX  93
TEXARKANA      CLEAR     86  75  69 S5        29.96S HX  95
EL DORADO      PTCLDY    82  77  84 CALM      29.97S HX  90
DE QUEEN       CLEAR     85  76  74 SE3       29.93S HX  94
$$

ARZ056-057-069-260200-
SOUTHEAST ARKANSAS

CITY           SKY/WX    TMP DP  RH WIND       PRES   REMARKS
PINE BLUFF     CLEAR     83  72  69 S3        29.97S HX  88
STUTTGART      CLEAR     82  70  65 SE6       29.98S HX  86
MONTICELLO     MOCLDY    84  73  69 CALM      29.98S HX  90

$$





USA.gov is the U.S. government's official web portal to all federal, state and local government web resources and services.